Location: Poughquag
(41.6090°N, 73.6820°W)
Time: 12:50:59
(UTC-04:00)

Tiros 1 - Pass Details

Date: 04 June 2020
Orbit: 630 x 664 km, 48.4° (Epoch: 06 July)

Event Time Altitude Azimuth Distance (km) Brightness Sun altitude
Rises 13:39:22 0° 273° (W) 2,975 10.7 68.6°
Reaches altitude 10° 13:41:52 10° 281° (W) 2,059 10.0 68.4°
Maximum altitude 13:46:19 39° 350° (N) 975 8.4 67.9°
Drops below altitude 10° 13:50:44 10° 60° (ENE) 2,040 9.6 67.4°
Sets 13:53:11 0° 68° (ENE) 2,944 10.3 67.2°
